Location: Krakow
(50.0830°N, 19.9170°E)
Time: 19:25:53
(UTC+01:00)

Transit 4A - Visible Passes

Search period start: 07 February 2023 00:00
Search period end: 17 February 2023 00:00
Orbit: 870 x 973 km, 66.8° (Epoch: 06 February)

Date Brightness Start Highest point End Pass type
(mag) Time Alt. Az. Time Alt. Az. Time Alt. Az.
07 Feb 8.4 17:36:11 10° SW 17:41:55 58° NW 17:47:42 10° NNE visible
07 Feb 9.8 19:25:11 10° WNW 19:29:31 21° NNW 19:32:50 14° NNE visible
07 Feb 10.3 21:14:44 10° NNW 21:16:21 14° NNW 21:16:21 14° NNW visible
08 Feb 8.8 17:45:44 10° WSW 17:51:16 44° NW 17:56:53 10° NNE visible
08 Feb 9.9 19:35:12 10° WNW 19:39:11 18° NNW 19:41:59 14° NNE visible
08 Feb 10.4 21:24:17 10° NNW 21:25:28 13° NNW 21:25:28 13° NNW visible
09 Feb 9.1 17:55:26 10° WSW 18:00:43 34° NW 18:06:03 10° NNE visible
09 Feb 9.9 19:45:13 10° NW 19:48:53 17° N 19:51:05 14° NNE visible
09 Feb 10.4 21:33:41 10° NNW 21:34:36 13° NNW 21:34:36 13° NNW visible
10 Feb 9.4 18:05:16 10° W 18:10:13 28° NNW 18:15:14 10° NNE visible
10 Feb 9.9 19:55:10 10° NW 19:58:38 16° N 20:00:11 14° NNE visible
10 Feb 10.5 21:42:58 10° NNW 21:43:41 12° NNW 21:43:41 12° NNW visible
11 Feb 9.6 18:15:11 10° WNW 18:19:47 23° NNW 18:24:26 10° NNE visible
11 Feb 9.9 20:04:58 10° NW 20:08:23 15° N 20:09:15 15° N visible
11 Feb 10.5 21:52:12 10° NNW 21:52:46 12° NNW 21:52:46 12° NNW visible
12 Feb 9.8 18:25:12 10° WNW 18:29:25 20° NNW 18:33:41 10° NNE visible
12 Feb 9.9 20:14:37 10° NNW 20:18:08 16° N 20:18:19 16° N visible
12 Feb 10.6 22:01:24 10° NNW 22:01:50 12° NNW 22:01:50 12° NNW visible
13 Feb 9.9 18:35:14 10° WNW 18:39:06 18° NNW 18:43:02 10° NNE visible
13 Feb 9.9 20:24:06 10° NNW 20:27:23 17° N 20:27:23 17° N visible
13 Feb 10.6 22:10:34 10° NNW 22:10:53 11° NNW 22:10:53 11° NNW visible
14 Feb 9.9 18:45:13 10° NW 18:48:49 16° N 18:52:27 10° NNE visible
14 Feb 9.8 20:33:27 10° NNW 20:36:26 18° N 20:36:26 18° N visible
14 Feb 10.6 22:19:43 10° NNW 22:19:56 11° NNW 22:19:56 11° NNW visible
15 Feb 9.9 18:55:07 10° NW 18:58:34 16° N 19:01:59 10° NNE visible
15 Feb 9.8 20:42:44 10° NNW 20:45:29 19° N 20:45:29 19° N visible
15 Feb 10.7 22:28:53 10° NNW 22:28:59 10° NNW 22:28:59 10° NNW visible
16 Feb 9.8 19:04:52 10° NNW 19:08:19 16° N 19:11:02 12° NNE visible
16 Feb 9.8 20:51:57 10° NNW 20:54:32 20° N 20:54:32 20° N visible
